Wind_Speed
44 43 43 44 43 41 38 38 38 38 39 39 38 38 37 37 36 35 34 32 31 30 29 28 28 28 29 28 26 25 24 24 25 27 28 29 29 29 29 30 30 30 30 29 28 27 26 26 25 25 24 23 23 23 24 24 25 26 26 26 26 26 26 26 25 24 23 21 20 21 21 23 24 26 27 27 28 29 29 30 30 31 32 33 34 34
45 44 45 46 44 41 40 40 40 40 40 40 39 38 37 37 36 37 36 34 33 32 31 30 28 28 29 29 28 26 25 26 26 28 28 29 30 31 31 32 32 32 31 29 28 27 27 27 27 27 26 25 25 24 24 25 25 26 27 27 28 28 29 29 28 28 27 26 24 23 23 24 25 26 26 27 28 29 30 31 32 34 34 35 35 36
46 46 47 47 44 42 42 42 42 42 42 42 40 39 37 36 35 36 37 36 36 34 33 31 30 29 30 30 30 28 26 27 28 29 29 28 29 30 32 33 33 32 31 30 28 27 27 27 28 29 29 28 28 27 27 27 27 28 28 29 29 30 31 31 32 32 32 31 29 27 26 26 27 27 28 29 29 30 31 31 32 33 34 36 36 36
46 48 49 47 44 43 43 44 44 44 44 43 42 39 37 36 35 36 36 36 37 37 35 33 31 31 31 31 31 29 27 27 28 29 29 28 28 29 31 32 31 31 31 30 29 28 29 29 29 30 30 30 29 29 29 29 30 30 30 31 31 32 33 34 35 35 36 35 34 33 32 31 31 32 32 32 33 32 33 33 33 33 34 35 36 37
47 51 50 46 44 43 44 45 45 45 45 44 42 40 38 37 36 36 36 37 38 37 36 35 33 33 32 33 33 32 29 28 28 28 29 29 29 29 30 29 29 29 30 30 30 30 31 31 31 31 32 32 31 31 31 32 32 33 33 33 33 33 34 35 36 37 38 38 38 37 36 35 34 35 35 35 35 35 35 35 35 35 35 35 36 37
50 54 50 45 44 44 45 46 45 46 46 45 42 40 39 37 37 37 37 38 38 36 36 36 35 34 34 34 35 34 31 29 29 30 30 30 30 30 30 29 28 29 30 31 32 32 33 33 33 33 33 34 33 33 33 33 34 36 36 37 37 36 36 36 36 37 37 38 38 38 38 37 37 37 37 38 38 39 38 38 37 37 36 34 34 35
53 55 49 44 44 44 45 46 46 47 47 45 42 40 39 38 38 38 38 38 38 37 37 36 34 34 35 36 36 35 33 31 31 31 31 31 31 31 31 30 30 30 30 30 31 32 33 33 33 33 34 35 35 35 35 35 36 37 38 39 39 39 38 36 35 36 36 36 37 37 38 38 39 39 39 40 41 41 40 39 38 37 35 33 31 30
54 55 48 45 44 43 44 46 46 46 45 44 41 40 40 39 39 40 38 38 38 39 39 36 32 31 34 37 37 36 35 33 32 32 32 32 32 33 33 32 31 31 30 30 30 31 32 32 33 33 34 35 36 37 37 36 37 38 38 39 39 39 38 38 37 37 37 36 37 37 38 39 39 40 41 42 42 42 40 39 39 37 35 32 29 28
54 55 48 46 45 43 44 46 46 44 44 44 42 41 41 41 42 41 39 38 38 40 40 35 30 30 32 35 37 37 36 34 33 33 33 33 33 35 35 34 33 32 30 29 29 30 31 31 32 33 34 35 36 37 38 38 39 39 39 39 40 39 39 39 39 39 39 39 38 39 39 40 40 41 41 42 41 40 40 40 40 38 36 33 30 28
53 54 49 45 44 43 45 47 45 43 45 45 43 42 42 43 43 41 39 38 37 40 40 34 30 30 32 34 35 36 36 34 33 33 33 33 34 35 36 35 33 32 31 30 30 31 31 32 33 34 34 34 35 37 38 39 40 40 40 41 41 41 41 41 40 40 40 40 40 41 41 41 42 42 42 42 41 40 40 41 40 39 37 35 33 32
51 54 49 44 44 45 47 47 44 44 45 44 43 43 43 43 43 41 39 37 36 39 39 33 30 31 32 34 34 35 36 34 32 32 33 33 34 35 35 34 33 32 31 30 31 31 31 33 34 34 34 35 35 36 37 39 41 41 42 42 43 43 43 42 42 41 41 41 41 42 42 42 42 43 43 43 42 41 41 41 41 40 39 38 38 37
49 52 48 44 45 46 45 44 43 43 44 44 43 43 43 43 42 40 38 36 35 38 37 32 30 30 32 34 34 34 34 34 32 32 33 33 34 35 36 35 34 33 31 31 31 31 32 34 35 35 35 35 35 36 37 38 41 42 43 43 44 44 45 45 44 43 42 42 42 43 43 43 45 46 46 45 44 43 42 42 42 42 41 41 41 40
46 48 47 45 44 44 43 43 43 42 43 43 44 43 43 42 40 38 36 34 35 36 34 31 30 30 31 33 33 32 32 32 32 32 32 34 36 37 37 37 35 33 31 31 31 31 33 34 35 35 35 35 35 35 35 36 40 42 43 43 44 46 47 45 44 43 43 43 44 45 46 48 49 50 50 48 47 47 47 46 44 43 42 42 42 42
43 45 47 46 44 42 41 41 43 43 42 43 44 43 42 41 38 36 34 34 34 32 31 31 30 30 31 31 31 31 30 30 31 31 33 35 37 38 38 36 34 32 31 31 31 32 33 34 34 35 35 35 33 32 31 35 40 41 41 43 44 45 44 42 41 41 43 45 47 48 50 51 52 53 53 52 52 51 50 49 47 44 43 43 43 43
43 45 46 46 43 41 40 41 42 42 40 42 44 41 40 40 38 35 33 33 31 29 29 30 30 30 30 30 29 29 29 29 30 32 34 36 36 37 36 35 34 32 32 32 31 32 32 33 34 35 34 34 32 29 30 34 38 39 39 41 42 41 40 40 41 41 44 48 50 51 52 53 54 54 54 54 53 53 52 51 49 47 45 45 45 46
43 45 44 43 42 41 40 40 41 40 39 40 41 39 40 39 35 33 32 32 30 28 28 28 29 29 29 28 28 28 28 29 31 33 35 35 36 36 34 34 35 34 33 33 31 31 31 32 34 36 36 34 30 26 26 32 36 37 38 40 40 40 41 42 43 45 48 52 53 53 55 55 55 54 54 54 54 54 54 53 52 51 50 49 48 49
44 44 42 40 42 42 42 40 38 38 38 37 37 39 39 36 33 32 32 32 30 27 26 27 27 28 27 28 27 26 27 29 32 34 34 35 36 34 33 34 34 34 34 32 30 29 30 31 35 37 34 31 30 28 29 33 35 37 40 41 41 42 44 44 45 49 53 55 56 57 58 58 57 56 55 56 56 56 57 57 56 56 55 54 54 54
42 43 40 40 42 43 41 38 36 37 36 34 35 38 36 33 32 32 32 31 29 27 26 26 26 26 27 28 27 26 28 31 33 34 35 35 35 33 32 33 33 34 32 30 29 27 28 28 35 37 33 31 34 34 35 36 36 39 42 43 45 47 47 46 47 51 56 58 59 61 61 60 59 58 58 59 60 61 61 62 62 61 61 61 62 62
41 41 39 39 41 41 39 37 36 36 35 34 35 34 32 31 32 32 31 30 28 27 26 25 24 26 28 28 27 28 30 32 34 35 35 36 35 34 33 33 34 34 32 30 28 25 23 28 37 36 33 32 35 36 37 39 41 42 44 46 48 50 50 50 52 55 59 61 63 65 65 64 63 62 62 63 64 65 66 67 67 67 67 68 69 69
39 38 38 39 40 39 37 36 36 35 33 33 33 31 30 31 31 30 29 29 28 27 26 24 25 27 30 30 29 30 32 33 36 36 36 36 36 35 34 34 34 34 31 30 26 21 20 31 36 33 30 30 33 36 37 39 41 43 45 49 52 54 54 55 56 59 63 66 68 70 69 67 66 65 66 67 68 70 70 71 71 71 70 70 70 70
37 38 39 39 38 37 37 36 36 33 31 31 31 30 30 30 30 29 28 27 27 26 24 24 26 30 32 31 30 31 32 35 37 37 36 37 37 37 36 35 35 33 30 29 25 19 19 30 33 31 29 29 29 32 36 41 44 47 51 54 56 57 57 57 61 65 69 71 73 73 72 70 69 69 70 71 72 73 72 72 71 70 69 69 68 68
37 38 38 37 36 36 36 35 33 31 30 30 30 30 29 28 28 27 26 25 25 25 25 26 28 31 33 33 32 32 34 37 37 37 37 37 37 37 37 36 35 32 30 27 24 20 21 27 33 32 28 28 29 34 40 45 49 51 55 57 57 57 58 61 67 71 73 74 75 74 73 72 72 72 73 73 73 72 72 71 70 69 68 68 67 67
36 36 36 36 36 36 34 33 32 31 31 30 30 29 28 26 26 25 24 24 26 27 28 29 30 33 34 34 33 34 35 37 37 37 38 37 37 37 37 37 35 32 30 26 22 19 18 23 32 33 27 27 31 36 39 42 48 53 57 59 59 59 61 66 71 74 75 75 74 73 73 72 72 72 72 71 71 71 70 70 70 69 68 68 67 66
38 37 37 36 35 34 32 32 32 31 31 30 28 28 27 26 25 24 25 26 28 29 30 31 31 33 35 35 35 35 35 37 37 38 39 37 36 36 36 36 35 33 32 29 23 18 16 23 32 32 27 26 30 35 38 41 49 55 57 58 59 61 66 71 74 75 75 74 73 73 72 71 70 70 70 70 70 71 71 70 69 68 67 66 65 64
40 39 37 34 33 31 30 31 31 30 29 28 27 27 28 26 25 26 27 28 30 32 32 31 31 32 34 35 35 35 35 36 38 38 38 37 35 36 36 34 30 27 28 28 24 17 18 28 34 33 30 30 33 39 43 46 50 53 56 58 61 65 70 73 75 75 74 73 72 70 69 69 69 69 70 70 71 71 70 69 68 67 66 65 64 63
41 39 35 32 31 30 29 30 30 28 27 28 28 28 28 27 26 27 28 30 32 32 32 31 31 31 33 34 34 34 34 35 36 37 36 36 35 35 34 30 23 20 24 27 25 19 18 27 33 33 32 32 35 41 47 50 53 55 58 61 64 68 71 73 74 73 72 70 69 68 68 69 69 70 70 70 70 69 68 67 66 65 64 63 62 61
39 36 32 31 30 30 30 29 28 27 27 28 29 28 27 26 26 27 29 31 32 32 32 31 32 32 33 34 34 34 34 34 35 35 35 35 34 33 33 29 24 24 27 27 24 18 17 25 33 35 34 36 39 43 47 51 54 56 59 62 65 69 71 72 71 69 68 68 68 68 69 69 70 70 69 69 68 67 65 65 64 63 62 61 60 59
37 33 30 30 31 31 31 29 28 27 27 28 29 28 26 25 26 28 30 31 32 32 32 32 33 33 33 34 35 34 34 34 34 34 34 33 33 32 32 31 28 27 28 27 24 20 20 27 34 36 37 40 42 46 49 53 56 58 60 63 66 68 69 68 67 66 67 67 68 68 69 69 68 68 67 67 66 65 64 63 62 61 60 59 58 57
35 32 31 32 33 33 32 31 30 28 28 28 29 28 26 27 28 30 31 32 32 33 34 33 33 33 33 34 35 35 35 35 34 34 33 32 32 32 31 30 29 29 29 28 28 26 25 28 33 36 39 42 45 49 52 54 56 58 61 63 66 66 65 65 65 66 67 67 67 67 67 67 66 66 66 65 64 63 62 61 60 59 58 57 56 56
34 33 34 35 35 35 34 32 31 30 29 29 28 28 27 29 31 32 33 33 33 34 34 33 33 32 32 33 34 34 35 35 34 33 32 31 31 31 31 30 30 31 30 30 30 29 28 32 36 38 41 44 48 51 52 54 56 59 62 63 64 63 63 63 65 65 66 66 66 66 65 65 65 64 64 63 62 61 59 58 57 57 56 55 54 53
36 36 36 37 36 35 34 34 32 31 30 29 29 28 29 31 33 34 34 35 36 36 35 33 32 32 32 33 33 34 35 34 33 32 31 30 30 30 31 31 31 31 31 32 33 33 35 39 41 40 42 46 50 51 53 55 58 60 61 61 61 62 62 63 64 65 65 65 65 64 64 64 63 62 62 61 60 59 58 57 56 55 54 53 52 50
38 38 37 37 37 36 36 35 34 32 31 30 30 29 31 33 34 35 35 36 37 36 34 33 32 31 31 32 33 34 34 33 32 32 30 29 29 30 31 32 32 33 34 36 37 39 41 42 42 42 46 50 52 53 56 58 59 60 60 60 60 61 62 63 63 64 64 64 63 63 63 62 61 60 59 59 58 57 57 56 55 53 52 51 49 48
40 39 38 39 39 39 37 36 34 32 32 32 31 31 33 35 36 36 36 36 35 35 33 32 31 31 31 32 33 33 32 32 31 30 29 29 30 31 33 34 34 36 38 40 41 42 43 44 45 48 51 53 54 56 57 58 59 59 59 60 60 61 61 62 63 63 63 63 62 62 61 60 59 58 57 57 56 55 55 54 52 51 49 48 46 45
40 39 40 41 40 38 35 33 32 32 32 32 33 35 36 38 38 38 37 35 34 33 32 31 31 31 31 31 32 31 31 31 30 29 29 30 31 32 34 35 37 39 40 41 41 43 45 47 49 51 53 54 55 56 57 57 57 58 59 60 60 60 61 61 62 62 62 62 61 60 59 58 57 56 55 55 54 53 52 51 49 48 46 44 43 42
39 38 39 39 38 36 33 31 30 31 32 33 36 38 38 38 39 38 36 35 33 33 32 31 30 29 30 30 30 30 31 30 29 28 29 31 32 33 35 37 39 39 39 40 42 45 47 49 50 51 53 54 55 55 55 56 57 58 58 58 59 59 60 60 61 61 61 60 59 58 57 55 54 54 53 52 52 51 50 48 46 44 43 41 40 39
37 36 36 37 37 36 34 31 31 31 33 34 37 38 37 37 38 38 37 36 34 33 31 30 29 29 29 29 30 30 30 28 27 28 29 31 32 33 35 36 37 37 39 42 45 48 49 49 50 51 52 53 53 54 55 55 56 57 57 57 58 59 59 59 59 60 59 58 57 56 54 53 52 52 51 51 49 48 47 45 44 42 40 38 37 36
36 34 35 36 37 36 34 32 31 32 34 35 36 36 36 37 38 38 38 36 34 32 30 29 29 29 29 29 30 29 28 26 26 28 29 30 31 32 33 34 35 37 40 44 47 48 48 49 50 51 51 51 52 53 54 55 56 56 56 57 58 58 59 59 59 58 57 56 54 53 52 51 51 51 50 48 47 46 44 43 42 40 39 37 35 34
34 34 35 36 36 35 34 32 32 33 34 35 35 35 36 36 37 37 37 35 33 32 30 29 29 29 29 29 28 27 25 25 26 27 29 30 31 31 31 33 36 39 42 45 47 48 48 48 48 49 50 51 52 53 54 54 54 55 55 56 57 58 58 58 57 56 55 53 52 51 51 51 50 49 48 47 45 44 43 42 40 39 37 35 33 32
33 33 34 34 34 34 33 32 32 33 33 34 34 34 34 34 34 34 34 33 32 32 30 29 28 27 27 26 24 24 23 24 26 27 29 31 32 32 33 35 38 41 44 46 46 46 47 47 48 48 49 50 51 52 53 53 53 54 55 56 57 57 56 56 56 54 53 52 51 51 51 50 49 48 47 46 45 44 42 41 39 37 35 34 32 31
33 32 32 32 33 33 33 32 33 33 33 32 32 32 33 32 32 32 32 32 31 30 28 26 25 24 23 21 21 21 22 24 26 29 30 32 33 35 37 39 41 44 45 46 45 45 45 46 47 48 49 50 51 52 52 52 53 53 54 55 56 55 55 55 54 53 52 52 52 51 50 50 49 49 48 47 46 45 43 41 40 38 35 33 31 30
32 30 30 31 32 33 33 33 34 33 32 31 31 32 32 32 31 30 30 30 29 27 25 23 22 20 18 18 19 20 22 25 27 29 31 32 34 37 39 41 44 45 45 45 45 45 45 46 47 48 49 50 50 51 51 52 52 53 54 55 54 54 54 54 53 52 52 52 51 51 51 50 51 50 50 49 48 47 45 43 41 38 36 33 31 30
31 30 30 31 32 33 34 34 33 32 30 30 31 31 31 30 29 29 28 27 25 24 22 20 18 17 18 19 20 21 23 26 28 30 31 34 37 39 41 43 44 44 44 44 44 44 45 46 47 48 49 49 50 50 51 51 51 53 53 53 53 53 53 53 52 52 51 51 51 51 52 52 52 52 52 51 50 49 47 45 42 39 36 33 31 29
30 29 29 31 31 32 33 33 31 30 30 30 31 31 31 29 28 27 26 24 23 21 19 18 17 18 19 20 20 22 24 26 29 32 34 37 39 41 42 43 43 43 42 42 43 44 45 46 47 48 48 48 49 49 50 50 51 52 53 52 53 53 53 52 52 51 51 51 51 52 52 53 53 53 52 52 51 50 49 47 44 41 37 33 30 28
28 28 29 29 30 31 31 31 29 29 30 31 31 31 29 28 26 25 24 23 21 20 19 19 19 19 19 20 21 23 25 28 31 34 37 39 40 42 42 42 42 41 41 42 42 43 45 46 47 47 47 47 48 48 49 49 50 51 52 52 52 52 52 51 51 50 50 50 51 52 52 52 52 52 52 52 52 51 50 49 46 43 40 35 31 28
27 27 28 28 29 29 29 29 28 28 30 32 31 29 27 26 24 22 22 21 20 20 20 19 19 18 19 19 21 24 27 31 34 36 38 40 41 42 42 41 40 40 40 41 42 43 45 46 47 46 46 47 47 47 48 49 50 51 51 51 51 51 51 50 50 49 49 50 50 51 51 51 51 51 51 52 52 53 52 51 49 46 43 39 34 31
25 26 26 27 28 28 28 27 27 29 31 30 27 25 24 23 21 20 20 20 21 20 20 18 17 18 19 20 22 26 30 33 35 38 39 41 41 42 41 40 39 39 40 40 41 43 45 46 46 45 46 46 47 47 47 48 49 50 50 50 50 50 50 50 49 49 49 49 50 50 50 51 51 51 51 51 52 53 53 53 51 49 46 42 38 34
25 25 26 27 28 28 27 27 28 29 28 24 21 21 20 19 18 18 19 19 19 19 18 17 17 18 19 21 24 28 32 34 37 39 41 42 42 41 40 39 39 39 39 40 41 43 44 45 45 45 45 46 46 46 46 47 48 49 49 49 49 49 49 49 48 48 48 48 49 49 49 50 50 50 50 50 51 51 52 53 53 52 49 46 42 38
25 26 27 27 28 28 26 26 26 25 21 18 18 20 19 17 17 17 17 18 18 18 17 17 18 18 20 23 27 30 33 36 38 40 42 42 41 40 39 38 38 38 39 40 41 43 43 44 44 45 45 45 45 45 46 47 47 48 48 48 48 48 48 48 47 47 47 47 48 48 49 49 49 49 50 50 50 50 51 53 53 53 52 50 47 43
26 27 27 27 27 26 25 24 23 20 17 16 18 18 17 16 16 16 17 18 18 18 18 18 18 20 22 25 28 31 34 37 39 41 42 42 40 39 38 38 38 38 38 40 41 42 43 43 44 44 44 44 44 44 45 45 46 46 46 46 47 47 47 46 46 45 46 46 47 47 47 47 48 49 49 49 50 50 51 52 53 54 54 53 51 49
25 26 26 26 26 25 23 22 20 18 17 16 15 14 15 15 15 16 17 18 19 19 19 19 20 22 25 27 29 32 35 38 41 42 42 40 39 37 37 37 38 38 39 40 41 41 42 42 43 44 44 44 44 44 44 44 45 45 45 45 45 46 46 45 45 44 45 45 45 46 46 46 47 48 49 49 50 50 51 52 52 53 53 54 54 53
23 23 24 23 23 23 21 20 19 17 16 14 13 13 14 15 15 17 18 19 20 20 20 20 22 25 27 28 31 34 37 40 42 42 40 39 37 37 37 37 38 39 40 40 40 40 41 42 42 43 43 43 43 43 44 44 44 44 44 44 44 45 45 45 45 44 44 44 44 45 45 46 46 47 48 48 49 50 51 51 51 52 53 54 55 55
Wind_Direction
270 271 271 271 271 273 275 275 275 275 277 279 281 284 286 289 292 294 295 297 298 299 300 300 300 302 304 306 307 309 308 306 304 302 301 300 301 302 303 303 303 301 299 296 295 295 295 293 289 285 285 285 286 285 284 282 279 277 275 273 273 274 276 279 282 285 287 288 290 291 288 285 284 285 286 288 288 288 288 288 289 288 287 286 285 283
270 271 271 271 273 274 274 273 273 273 274 275 276 278 281 286 290 293 294 296 296 296 297 297 300 303 305 306 306 307 308 306 303 300 299 301 303 305 305 304 302 300 296 293 292 293 293 292 288 285 283 282 283 284 284 284 283 282 280 279 278 278 280 281 282 285 288 288 289 292 292 291 290 290 291 292 292 293 292 292 291 290 288 287 285 283
270 270 269 270 272 274 273 273 272 272 273 274 275 277 281 285 288 290 293 294 294 294 295 297 301 303 303 304 304 305 307 306 302 299 299 301 303 304 304 304 302 299 294 289 287 289 291 291 287 284 282 282 283 285 286 286 287 286 285 284 283 283 283 283 284 285 286 287 287 288 289 291 292 292 294 295 296 296 296 296 295 293 290 288 286 283
266 266 267 269 271 273 273 272 272 272 273 274 276 278 281 284 285 286 289 290 291 293 295 298 300 300 301 302 302 304 305 303 300 299 299 299 300 302 303 303 301 297 293 288 285 286 290 291 289 284 281 280 282 284 285 286 287 287 287 287 286 286 285 284 283 283 284 285 285 286 287 288 289 291 293 294 296 297 299 300 300 298 294 290 287 284
264 264 266 268 270 270 270 270 271 272 273 274 276 279 281 282 283 284 284 285 287 291 295 297 298 299 301 302 301 303 304 302 300 298 298 299 300 302 304 302 298 294 290 287 286 287 289 291 291 287 283 281 281 283 283 284 284 285 286 286 287 287 286 285 284 283 284 284 285 285 285 286 287 289 292 294 295 298 300 302 303 301 297 292 288 285
262 264 266 268 268 268 268 270 271 271 272 274 277 279 280 281 281 281 281 282 285 289 291 292 295 299 302 301 301 303 304 303 301 300 300 300 302 303 302 300 297 294 290 288 288 289 290 292 292 289 285 282 281 282 283 283 283 284 284 285 285 286 286 286 285 284 284 284 284 285 284 285 286 288 291 293 296 297 299 301 303 302 298 294 291 287
262 264 266 266 266 266 267 268 269 270 273 275 278 279 279 280 279 278 279 281 284 286 286 289 295 300 301 300 300 302 303 303 302 302 301 302 303 303 300 297 295 293 292 290 290 292 293 294 294 291 286 282 280 280 282 284 284 284 284 284 285 286 286 286 285 285 285 285 285 286 286 287 288 289 291 294 296 297 298 300 301 301 299 296 294 292
262 263 264 264 264 264 265 266 267 270 273 275 276 276 276 275 275 275 276 279 282 284 285 290 298 300 299 298 300 302 302 303 303 302 302 302 303 301 298 295 292 292 291 291 291 293 295 295 295 292 287 283 281 280 282 284 285 285 285 285 286 287 288 288 288 287 288 289 289 290 290 291 292 293 295 297 298 297 297 298 300 300 299 299 297 295
260 262 262 262 263 264 264 265 266 268 270 271 272 271 272 272 271 272 274 277 281 283 286 293 299 298 294 295 298 300 300 301 301 301 301 301 300 297 294 292 291 290 290 290 292 294 295 295 293 290 288 286 284 283 284 286 286 286 286 286 287 289 290 291 292 293 294 295 296 297 297 298 299 300 300 301 300 298 298 300 302 300 298 298 299 298
258 261 261 261 263 262 262 263 265 265 266 268 269 269 270 270 271 273 276 279 282 284 288 295 298 295 293 293 295 296 297 298 298 299 299 297 296 293 291 291 291 291 290 291 293 295 296 295 292 290 289 288 287 286 286 287 288 288 287 288 289 290 291 293 295 298 300 301 303 303 304 304 304 305 305 305 303 302 304 305 306 304 301 300 300 300
256 259 260 260 260 260 261 264 265 265 266 268 269 269 269 270 273 275 278 282 285 285 288 294 295 294 293 292 291 293 295 297 298 297 295 294 293 291 291 291 291 293 293 294 296 299 298 295 293 293 292 291 291 290 290 290 289 288 288 291 292 293 295 297 299 302 304 306 307 308 308 307 307 307 308 307 306 306 307 308 309 308 306 305 303 301
255 259 261 260 259 260 262 265 265 265 266 268 268 268 269 270 273 277 281 285 285 283 286 292 293 291 290 289 291 294 295 297 297 294 293 294 293 292 292 292 293 295 296 297 300 302 299 297 297 299 299 298 297 298 300 298 294 292 292 294 296 298 300 301 303 305 306 308 309 310 310 309 309 310 310 309 308 307 307 308 309 308 306 304 302 301
254 259 261 259 258 260 262 262 263 263 264 266 266 267 269 271 275 279 282 283 281 283 289 293 291 289 288 288 291 293 293 294 293 293 294 294 293 293 292 294 296 299 300 301 302 303 301 301 304 305 305 304 305 308 308 300 295 296 298 298 300 301 302 303 305 307 309 311 312 313 312 312 311 311 311 311 310 308 308 308 308 308 306 303 300 298
254 256 258 258 257 257 259 260 262 262 263 265 266 268 271 274 276 277 278 278 280 286 291 289 288 287 286 287 289 289 290 292 293 295 295 293 292 292 293 297 301 303 303 301 303 304 304 307 310 311 310 308 310 312 304 293 293 298 302 303 304 303 302 303 306 309 314 317 318 317 316 314 314 313 313 312 311 310 309 308 308 307 305 303 301 298
252 253 254 257 259 258 258 259 261 263 265 266 268 271 272 273 274 276 277 278 280 282 283 284 286 286 285 287 287 289 291 293 295 295 292 291 292 293 297 302 305 304 302 302 305 307 309 315 317 316 313 312 313 307 293 289 296 303 305 305 304 303 302 303 305 310 315 319 319 318 317 315 315 314 313 312 311 309 308 307 307 306 304 302 300 298
249 251 253 257 260 260 258 258 260 263 264 265 270 272 271 272 277 279 279 278 277 277 278 281 282 283 285 287 287 291 294 294 293 290 289 291 293 296 304 308 307 307 306 307 309 310 319 324 320 318 319 320 318 306 292 295 302 305 305 303 303 302 301 302 304 308 314 317 317 317 316 315 313 312 311 310 309 307 306 306 305 304 303 301 299 297
248 251 252 254 256 257 257 258 260 262 263 266 269 270 271 277 280 279 278 278 279 281 281 281 282 284 286 286 288 292 293 291 288 288 290 293 295 302 309 311 311 311 310 312 312 319 335 331 315 318 325 323 317 304 294 300 304 303 302 299 298 297 298 301 303 308 313 315 315 315 313 312 311 310 309 308 307 306 305 304 303 303 302 300 299 296
249 252 253 253 255 257 259 262 263 264 266 267 266 268 274 279 279 278 279 281 284 285 284 284 285 287 286 285 288 289 287 286 287 290 293 295 300 307 311 313 315 314 314 315 317 332 347 326 306 314 322 317 313 305 298 301 303 300 297 295 294 296 298 300 302 306 310 311 312 313 312 311 310 310 309 309 308 307 306 305 304 303 302 301 300 299
249 251 253 254 255 258 261 263 263 263 265 265 266 271 275 276 276 278 280 282 284 284 283 285 287 286 284 284 286 287 286 288 290 292 296 300 305 309 312 315 315 315 317 317 325 347 347 312 302 313 319 313 310 305 301 302 300 296 292 289 290 293 295 297 299 302 306 309 312 313 313 312 311 311 310 309 308 306 305 304 303 302 302 301 300 298
250 251 252 253 255 259 261 261 261 262 264 266 268 272 273 272 274 276 277 279 280 282 285 290 291 287 285 286 288 289 290 290 291 295 300 305 308 309 311 313 312 315 318 319 334 353 327 301 301 309 316 312 305 301 299 298 297 294 290 287 288 290 292 295 300 303 307 311 313 313 312 311 310 310 309 307 306 304 303 302 301 300 299 298 297 296
249 249 249 251 254 257 258 259 261 264 266 267 268 269 269 270 272 273 275 278 281 285 289 291 289 286 286 287 288 289 290 290 293 299 304 305 306 308 309 310 310 315 318 323 340 346 310 297 295 296 308 313 302 295 294 293 294 293 290 287 287 289 291 296 303 308 311 313 313 312 311 310 309 308 307 305 304 303 302 301 300 298 297 296 295 294
247 249 251 254 255 255 257 260 262 265 266 266 266 267 268 269 272 275 279 282 285 287 286 285 284 284 284 286 288 289 290 292 297 301 302 303 304 306 307 308 310 314 319 329 340 330 304 294 289 289 302 307 297 292 294 294 293 292 290 288 290 293 297 302 307 310 311 311 310 310 309 309 308 306 305 304 303 303 302 301 300 299 298 297 296 295
245 248 251 252 253 254 257 260 262 264 264 265 266 268 270 273 275 279 283 285 285 284 282 281 281 281 284 286 289 291 292 295 298 298 299 302 305 305 305 305 307 311 319 326 327 314 298 288 287 289 295 296 292 289 290 291 290 290 291 293 296 300 302 305 307 308 308 308 308 308 308 307 306 305 305 304 304 303 302 301 300 300 299 298 296 295
240 242 244 246 249 253 255 258 260 262 263 265 268 271 274 275 278 281 282 281 279 277 275 275 276 279 283 286 288 291 293 294 295 295 299 305 306 304 301 302 308 319 324 320 315 310 295 280 279 282 286 290 290 286 284 287 290 293 295 296 298 300 302 304 306 306 307 307 307 307 307 307 307 306 306 305 304 303 302 302 301 301 300 298 297 296
242 242 243 245 249 252 255 256 258 261 264 267 270 271 272 274 275 277 276 274 273 273 274 275 278 280 282 284 287 290 291 291 292 295 300 303 302 299 297 303 316 326 319 308 304 300 284 276 275 276 278 281 283 282 281 283 287 290 291 293 296 299 302 304 305 306 307 307 308 308 308 308 308 308 307 306 304 304 303 303 303 301 300 299 298 297
245 246 247 248 250 252 254 256 259 263 266 268 268 268 270 273 275 275 275 275 276 278 280 282 282 280 280 281 283 284 286 288 291 295 297 298 296 295 296 302 309 303 291 290 295 298 291 284 282 281 280 277 275 276 276 277 280 284 288 292 296 299 302 305 306 308 308 308 309 310 311 311 309 308 307 306 305 305 305 304 303 302 301 300 299 298
247 249 251 251 251 252 252 254 257 260 263 265 266 267 271 275 278 280 281 280 281 284 287 286 283 281 279 280 281 283 285 287 291 294 295 294 293 293 295 298 296 287 283 287 293 299 295 282 277 277 277 276 276 277 278 281 285 290 293 296 298 301 305 307 308 309 310 311 313 313 312 311 309 308 307 307 307 307 306 305 304 304 303 302 301 299
247 250 251 251 250 251 252 252 253 255 258 263 266 268 272 276 279 281 281 281 283 286 286 284 282 282 282 284 285 287 289 291 293 293 293 292 292 292 294 295 293 288 287 289 292 294 285 274 273 275 275 277 280 284 288 292 294 296 298 300 302 305 308 309 310 312 313 314 314 312 311 310 310 309 309 309 309 308 308 307 306 305 304 303 301 300
244 247 248 248 247 248 249 249 249 250 253 259 264 268 272 275 277 278 278 279 281 282 281 281 282 283 285 286 287 289 290 290 290 290 292 291 291 292 292 292 290 289 290 293 297 296 287 279 281 284 286 288 292 296 298 299 299 300 302 305 307 309 311 313 314 315 315 314 313 312 312 312 312 312 311 311 310 310 309 308 306 305 304 304 303 302
240 242 243 244 244 245 246 247 247 248 250 255 261 267 272 274 274 274 276 277 278 278 279 282 284 285 286 285 286 286 286 286 288 290 292 291 290 290 289 289 290 292 296 300 303 300 294 293 295 296 296 299 302 303 303 303 303 305 307 309 311 313 315 316 316 315 314 314 314 314 314 315 314 314 313 312 311 310 309 308 307 307 306 305 304 303
239 239 239 242 244 245 247 249 249 250 252 255 259 264 268 270 270 271 273 274 275 278 281 284 285 286 286 286 286 284 284 286 289 289 289 289 290 290 291 292 295 299 304 306 306 304 303 303 304 303 302 304 306 306 306 307 309 310 312 313 315 317 318 318 317 316 316 316 317 317 317 317 316 314 313 312 312 312 311 310 310 309 308 307 307 306
239 239 240 241 243 244 245 247 248 250 253 257 260 263 264 265 266 268 269 271 274 278 283 285 285 285 285 284 283 283 284 285 286 287 289 292 294 295 297 299 303 307 309 310 310 310 310 310 307 306 307 308 309 310 311 312 313 314 315 317 319 319 319 318 318 318 318 319 320 319 319 318 316 315 315 315 315 314 313 313 312 312 311 311 310 309
240 240 241 241 242 242 243 244 246 249 253 256 259 261 261 262 263 265 268 271 274 278 281 282 281 281 280 279 280 282 284 284 287 290 295 297 299 301 303 306 309 312 313 313 313 313 313 311 309 309 311 312 312 313 314 314 316 317 319 320 320 320 320 320 320 321 321 322 321 320 320 319 319 318 318 317 317 316 316 315 315 315 314 313 313 312
239 240 242 243 245 246 247 248 250 252 255 258 259 259 259 261 264 267 270 273 275 277 277 276 275 276 276 278 281 283 284 287 291 295 298 300 303 306 308 311 314 315 314 313 313 312 311 310 309 310 312 313 314 315 315 317 319 321 321 321 321 321 321 322 323 323 323 323 323 322 322 322 322 321 320 320 319 319 319 319 318 318 317 316 315 314
240 241 244 248 251 253 252 252 253 255 258 259 259 259 261 263 266 269 271 272 273 272 272 273 274 276 278 280 282 284 286 291 295 299 302 305 308 310 313 315 315 314 313 311 311 311 310 311 312 313 313 314 316 317 318 321 322 322 322 322 322 323 324 325 325 326 325 325 325 325 325 325 324 324 324 324 324 324 323 322 321 320 319 318 317 315
241 243 247 251 254 255 255 254 254 255 256 257 258 260 263 265 267 268 269 269 269 269 271 274 276 278 280 282 284 287 291 297 302 305 307 308 310 312 315 316 314 312 311 312 312 312 313 314 315 314 315 316 318 320 322 323 323 323 323 324 325 326 327 328 328 328 328 327 328 328 328 327 327 328 329 329 328 327 326 325 324 323 322 321 320 318
242 244 247 251 253 255 256 256 255 255 255 256 258 260 262 264 266 268 270 270 271 271 272 275 277 280 282 284 287 292 298 304 307 307 307 307 309 312 314 314 312 311 312 313 313 314 314 315 315 315 317 319 321 323 323 323 323 324 325 326 327 328 329 330 330 330 329 330 330 330 330 332 333 334 334 333 332 331 330 329 327 326 325 325 325 324
240 241 244 248 251 254 256 256 255 255 256 257 258 260 261 263 266 269 271 273 273 273 273 276 279 282 285 288 292 298 303 306 305 304 303 304 307 309 309 310 310 310 312 313 314 314 315 315 316 318 320 322 323 324 324 324 325 326 327 329 330 331 332 331 331 331 331 331 332 333 336 338 339 339 338 338 337 336 335 333 332 331 330 330 330 329
236 236 239 243 247 250 253 254 254 253 254 256 259 261 263 264 265 267 268 269 270 271 273 277 280 282 285 290 295 300 302 302 299 299 301 304 306 307 308 309 311 312 313 314 315 316 316 317 319 321 323 324 324 324 324 325 327 328 330 331 332 333 333 332 332 332 333 334 337 341 343 344 343 343 343 343 342 341 340 339 338 337 337 336 336 334
233 232 234 238 242 245 248 249 250 251 252 255 258 261 261 261 261 261 263 264 265 268 272 275 277 280 285 290 294 295 295 293 294 297 302 306 308 310 311 313 314 315 315 316 316 317 318 319 321 323 325 325 325 325 326 327 329 331 332 333 334 333 332 332 333 335 336 340 344 346 346 346 347 348 349 348 348 348 347 346 345 344 343 341 340 338
231 228 229 233 237 241 244 246 247 249 251 253 255 257 258 259 259 259 260 262 265 268 269 270 272 277 282 284 284 285 287 291 295 300 305 310 312 313 314 315 316 316 316 316 317 318 320 322 324 325 325 325 325 327 328 329 331 332 333 334 334 333 333 334 336 338 343 347 348 348 348 350 351 353 353 354 354 354 354 353 352 350 347 345 344 343
229 226 226 230 234 238 241 244 246 248 249 250 251 253 255 256 257 258 261 263 264 264 264 265 267 270 273 275 279 284 290 296 301 305 310 313 314 315 315 315 316 316 316 317 318 321 323 325 325 326 325 326 327 328 329 331 332 334 334 334 334 334 335 337 340 344 348 349 349 349 351 353 355 356 357 358 358 359 359 359 358 355 352 349 348 347
228 226 227 230 234 237 241 244 246 247 247 247 248 249 250 251 253 256 259 261 260 258 258 258 261 266 272 277 283 290 296 302 306 311 314 315 315 315 315 315 315 316 316 318 320 323 325 325 325 326 326 327 328 329 330 332 333 334 335 334 334 335 338 341 344 347 350 350 350 352 354 356 357 359 360 1 2 3 4 4 4 1 358 354 352 351
227 226 227 229 232 236 240 243 245 245 246 246 246 247 249 251 254 257 259 258 255 252 251 254 261 270 278 284 291 297 303 307 312 315 316 316 316 316 316 315 315 316 318 320 323 324 325 325 325 326 327 328 329 330 332 333 334 335 335 335 335 338 341 343 346 349 350 351 352 354 356 358 359 0 2 3 5 6 7 9 8 7 5 2 359 356
225 225 226 228 231 234 237 240 242 243 244 246 248 249 250 253 255 257 257 254 249 248 252 259 269 278 286 292 298 303 307 311 314 316 316 316 316 316 315 314 315 317 320 322 324 324 324 324 325 326 327 328 330 332 333 334 335 335 335 336 338 341 343 345 347 349 350 351 353 356 357 359 360 1 3 5 6 9 10 11 12 11 10 8 5 2
223 224 226 228 231 233 235 237 238 240 244 248 251 253 254 257 257 254 249 245 246 252 260 269 279 287 292 297 301 305 309 311 313 314 315 315 315 314 313 314 315 318 322 323 324 324 324 324 324 326 328 330 332 333 334 335 335 335 336 337 339 342 344 346 347 349 350 352 354 356 358 359 0 2 3 5 7 10 12 13 14 14 13 12 9 6
222 224 225 228 230 232 234 236 237 241 248 253 254 252 251 252 250 246 243 245 251 259 267 277 286 292 297 301 304 306 308 310 312 314 314 314 313 312 312 314 317 321 323 324 324 323 323 323 325 327 329 331 333 334 335 335 335 336 336 338 341 343 345 346 347 348 350 351 354 356 357 359 1 2 3 5 8 10 11 13 15 16 16 14 12 9
222 224 225 227 230 233 234 237 240 244 251 254 249 245 245 245 244 245 248 253 258 265 274 282 289 295 301 304 305 305 306 309 312 314 313 312 311 311 313 316 319 322 324 323 322 322 322 323 326 329 330 332 333 335 335 335 335 336 337 339 342 343 344 345 346 348 348 350 352 355 357 358 360 1 2 5 7 9 11 12 14 16 17 16 15 12
222 225 227 228 231 234 236 238 240 240 239 240 241 243 244 244 244 248 253 258 264 271 278 286 293 301 305 306 305 305 308 311 313 312 311 310 310 312 316 319 321 323 323 321 321 321 323 325 327 329 330 332 334 335 335 335 335 335 337 339 341 343 344 345 346 346 347 348 350 353 355 357 358 359 1 4 6 8 10 12 13 14 15 16 16 15
223 226 228 229 232 234 236 238 239 233 227 230 236 239 242 244 246 251 257 263 270 277 285 294 301 305 306 306 306 308 311 312 311 311 310 310 311 315 318 320 321 321 321 321 321 323 324 326 328 329 331 332 334 334 334 334 335 335 337 339 340 342 343 344 345 345 345 347 348 350 352 354 356 357 360 2 4 6 9 10 11 12 13 14 15 16
225 227 229 230 232 234 236 239 236 225 218 223 231 235 239 245 250 257 264 271 279 286 295 302 305 306 306 307 309 311 312 311 310 310 310 311 314 318 320 320 320 320 320 321 323 324 325 327 328 329 331 332 333 333 333 334 335 336 337 338 339 341 342 343 344 344 344 345 346 347 349 351 353 355 358 360 2 5 7 8 9 10 11 13 14 14
Height
10946 10948 10947 10946 10947 10949 10951 10952 10951 10950 10949 10949 10949 10948 10949 10949 10950 10951 10951 10952 10951 10951 10949 10948 10946 10944 10942 10942 10943 10943 10942 10941 10939 10937 10935 10932 10931 10931 10932 10931 10931 10931 10929 10928 10928 10927 10926 10925 10924 10924 10923 10922 10921 10920 10919 10919 10918 10918 10918 10918 10917 10916 10916 10915 10914 10914 10913 10912 10910 10909 10908 10906 10905 10903 10902 10901 10900 10899 10898 10897 10896 10895 10893 10892 10890 10890
10943 10944 10943 10941 10943 10946 10948 10947 10947 10947 10946 10946 10947 10948 10948 10949 10949 10948 10948 10948 10948 10948 10947 10946 10945 10943 10941 10940 10940 10940 10940 10938 10937 10935 10934 10932 10930 10929 10929 10929 10929 10928 10927 10925 10924 10924 10923 10922 10922 10921 10920 10919 10919 10918 10917 10916 10916 10915 10915 10915 10915 10914 10913 10912 10911 10911 10910 10909 10907 10906 10905 10903 10902 10900 10899 10898 10897 10896 10895 10893 10891 10890 10888 10887 10885 10884
10940 10939 10937 10937 10940 10943 10943 10943 10942 10942 10942 10943 10943 10945 10947 10948 10947 10946 10945 10944 10944 10944 10944 10943 10943 10941 10939 10937 10937 10938 10938 10936 10934 10933 10932 10931 10929 10928 10927 10927 10926 10925 10923 10922 10921 10921 10920 10920 10919 10918 10917 10916 10916 10915 10914 10914 10913 10912 10912 10912 10911 10911 10910 10909 10908 10907 10906 10905 10904 10903 10902 10900 10899 10897 10896 10895 10893 10892 10890 10888 10886 10884 10883 10881 10880 10879
10936 10933 10932 10935 10938 10939 10938 10938 10938 10937 10938 10938 10940 10943 10944 10945 10945 10944 10943 10942 10940 10940 10940 10940 10941 10938 10936 10935 10934 10935 10936 10934 10932 10931 10930 10930 10929 10927 10926 10926 10924 10922 10920 10919 10918 10917 10917 10916 10915 10915 10914 10913 10913 10912 10911 10910 10909 10909 10909 10908 10908 10907 10907 10906 10905 10904 10902 10901 10900 10899 10898 10896 10895 10893 10892 10891 10889 10887 10885 10882 10880 10879 10877 10875 10874 10873
10931 10926 10929 10934 10935 10935 10934 10933 10933 10933 10933 10935 10937 10940 10941 10942 10942 10941 10941 10939 10938 10938 10937 10937 10937 10936 10934 10932 10931 10931 10933 10932 10930 10929 10929 10928 10927 10926 10925 10924 10922 10920 10917 10915 10915 10914 10913 10913 10912 10911 10910 10909 10909 10908 10908 10907 10906 10905 10904 10904 10904 10904 10903 10902 10901 10900 10899 10898 10897 10895 10894 10892 10891 10889 10888 10886 10884 10882 10879 10877 10875 10873 10871 10869 10867 10867
10923 10921 10927 10932 10932 10932 10930 10928 10929 10928 10928 10931 10934 10936 10937 10938 10937 10937 10936 10936 10936 10936 10935 10935 10935 10934 10932 10929 10928 10928 10929 10929 10928 10927 10926 10926 10925 10924 10923 10922 10920 10917 10915 10913 10911 10911 10910 10909 10908 10907 10906 10906 10905 10905 10904 10903 10902 10901 10900 10900 10899 10899 10899 10898 10898 10897 10896 10894 10893 10892 10890 10888 10887 10885 10884 10882 10879 10877 10874 10872 10869 10867 10865 10863 10862 10861
10916 10915 10924 10928 10928 10928 10926 10925 10925 10924 10925 10928 10931 10932 10933 10933 10932 10932 10932 10932 10933 10933 10932 10933 10934 10933 10929 10926 10925 10925 10926 10926 10925 10924 10923 10923 10922 10922 10920 10918 10917 10914 10912 10910 10909 10908 10907 10906 10905 10904 10903 10902 10901 10900 10900 10899 10898 10897 10896 10895 10895 10894 10894 10894 10893 10892 10891 10890 10889 10888 10886 10884 10882 10881 10879 10877 10875 10872 10869 10866 10864 10862 10860 10858 10857 10856
10909 10910 10920 10923 10923 10925 10924 10922 10921 10922 10923 10925 10927 10928 10928 10928 10927 10927 10929 10929 10930 10929 10929 10931 10934 10933 10928 10924 10922 10922 10922 10922 10922 10921 10920 10920 10920 10918 10916 10914 10913 10910 10909 10908 10906 10905 10904 10904 10902 10901 10899 10898 10897 10896 10896 10895 10894 10893 10892 10891 10890 10889 10889 10888 10888 10887 10886 10886 10885 10883 10882 10880 10878 10876 10874 10872 10870 10867 10864 10861 10858 10856 10854 10853 10852 10851
10904 10905 10915 10918 10919 10921 10919 10917 10919 10921 10920 10920 10923 10923 10923 10923 10922 10923 10926 10927 10928 10926 10925 10929 10932 10931 10927 10924 10921 10920 10920 10920 10920 10919 10918 10917 10917 10915 10912 10910 10908 10907 10906 10905 10904 10903 10902 10901 10899 10897 10896 10895 10894 10893 10892 10891 10890 10889 10888 10886 10885 10884 10883 10883 10882 10881 10881 10880 10879 10878 10876 10874 10872 10870 10869 10867 10864 10862 10858 10855 10853 10850 10849 10848 10847 10846
10900 10901 10910 10914 10915 10916 10913 10912 10916 10917 10916 10916 10919 10918 10918 10919 10918 10921 10923 10925 10926 10923 10922 10927 10930 10928 10925 10923 10921 10919 10918 10918 10918 10917 10916 10916 10914 10911 10908 10907 10905 10903 10903 10903 10902 10901 10900 10898 10896 10894 10893 10892 10891 10890 10889 10888 10886 10884 10882 10881 10880 10879 10878 10877 10877 10876 10875 10874 10873 10872 10870 10868 10866 10864 10862 10860 10858 10856 10852 10849 10846 10844 10843 10842 10841 10840
10898 10897 10905 10911 10911 10909 10908 10909 10913 10913 10912 10913 10914 10914 10914 10915 10915 10918 10920 10922 10924 10921 10920 10924 10926 10925 10922 10920 10919 10917 10916 10916 10916 10916 10914 10913 10911 10907 10904 10903 10902 10901 10901 10901 10900 10899 10897 10895 10893 10892 10891 10890 10889 10888 10886 10884 10882 10879 10877 10876 10875 10873 10873 10872 10871 10871 10869 10868 10867 10865 10863 10861 10859 10857 10855 10854 10852 10849 10846 10843 10840 10838 10836 10835 10833 10832
10896 10895 10900 10906 10905 10904 10906 10907 10908 10909 10908 10909 10909 10910 10911 10912 10914 10916 10918 10920 10920 10918 10918 10922 10923 10922 10919 10916 10916 10915 10913 10913 10913 10912 10911 10909 10906 10903 10901 10900 10899 10899 10899 10899 10898 10896 10894 10892 10890 10889 10888 10887 10885 10884 10884 10881 10877 10874 10873 10871 10870 10868 10867 10866 10866 10865 10864 10862 10861 10859 10858 10855 10853 10851 10849 10847 10845 10843 10840 10838 10835 10833 10830 10828 10826 10825
10895 10893 10895 10899 10901 10902 10903 10904 10904 10904 10905 10904 10904 10906 10907 10909 10912 10914 10915 10916 10916 10916 10917 10919 10919 10918 10916 10914 10913 10912 10911 10911 10910 10909 10907 10905 10902 10900 10898 10897 10897 10898 10897 10896 10895 10893 10890 10889 10887 10886 10884 10883 10882 10883 10883 10878 10872 10869 10868 10866 10865 10863 10862 10861 10860 10858 10857 10856 10855 10853 10851 10848 10846 10844 10842 10840 10838 10835 10833 10830 10829 10827 10824 10822 10820 10818
10893 10891 10890 10892 10896 10899 10900 10900 10900 10900 10901 10900 10900 10903 10905 10906 10910 10912 10913 10913 10914 10915 10915 10914 10915 10915 10913 10912 10911 10910 10909 10908 10907 10905 10904 10901 10899 10897 10895 10895 10896 10896 10895 10893 10891 10890 10887 10886 10885 10883 10880 10878 10879 10882 10881 10874 10868 10865 10863 10861 10860 10858 10857 10855 10854 10852 10851 10850 10848 10846 10844 10841 10839 10836 10834 10832 10830 10827 10824 10822 10821 10819 10817 10815 10813 10811
10888 10887 10886 10887 10891 10895 10897 10897 10896 10897 10899 10897 10898 10902 10903 10903 10906 10908 10910 10911 10912 10913 10912 10911 10912 10911 10910 10910 10908 10907 10906 10905 10903 10902 10900 10898 10896 10894 10894 10894 10894 10893 10892 10890 10889 10887 10885 10885 10883 10880 10877 10875 10876 10877 10874 10868 10863 10860 10858 10855 10854 10853 10851 10849 10848 10846 10845 10844 10842 10840 10837 10835 10832 10829 10827 10824 10822 10819 10816 10814 10812 10811 10809 10807 10805 10803
10883 10882 10884 10887 10888 10890 10892 10893 10893 10895 10896 10895 10896 10898 10898 10899 10903 10905 10906 10907 10908 10910 10910 10909 10909 10908 10908 10907 10905 10904 10903 10901 10899 10897 10896 10894 10893 10892 10893 10893 10891 10890 10889 10887 10886 10885 10885 10886 10884 10879 10875 10872 10872 10871 10867 10862 10858 10856 10853 10851 10849 10847 10846 10844 10842 10840 10839 10837 10836 10834 10831 10829 10826 10824 10821 10818 10814 10812 10809 10806 10804 10802 10800 10799 10797 10795
10879 10879 10883 10885 10884 10884 10886 10889 10892 10892 10893 10895 10895 10893 10894 10898 10901 10901 10901 10902 10904 10906 10907 10907 10906 10905 10904 10903 10902 10902 10900 10897 10895 10893 10892 10892 10891 10891 10891 10890 10887 10886 10885 10884 10884 10884 10887 10890 10885 10879 10874 10870 10868 10866 10862 10858 10855 10852 10849 10847 10844 10843 10841 10840 10837 10834 10833 10831 10828 10827 10825 10822 10820 10817 10814 10810 10807 10804 10800 10797 10795 10793 10791 10788 10786 10784
10877 10878 10881 10883 10881 10880 10883 10887 10890 10890 10890 10893 10893 10891 10893 10896 10896 10896 10897 10898 10900 10902 10902 10903 10902 10902 10901 10899 10899 10898 10896 10893 10891 10890 10890 10889 10888 10889 10888 10886 10884 10883 10882 10882 10883 10885 10891 10891 10884 10878 10875 10869 10864 10861 10858 10855 10853 10850 10847 10843 10840 10838 10837 10836 10833 10830 10827 10825 10822 10819 10817 10814 10812 10809 10805 10802 10798 10794 10790 10787 10784 10782 10780 10777 10774 10772
10874 10876 10879 10880 10878 10879 10883 10886 10887 10887 10889 10890 10890 10891 10893 10894 10893 10894 10894 10895 10897 10898 10898 10899 10899 10898 10896 10896 10896 10894 10891 10889 10888 10887 10887 10886 10886 10885 10884 10883 10881 10880 10879 10880 10882 10887 10892 10888 10880 10877 10875 10868 10861 10856 10853 10852 10849 10846 10843 10838 10835 10834 10832 10830 10828 10826 10823 10819 10816 10812 10809 10806 10803 10800 10796 10792 10789 10785 10781 10777 10774 10771 10768 10766 10762 10759
10872 10875 10876 10876 10876 10878 10881 10882 10883 10885 10887 10888 10889 10890 10891 10891 10891 10892 10893 10893 10894 10894 10895 10896 10896 10893 10892 10892 10891 10890 10888 10886 10884 10884 10884 10883 10882 10882 10881 10880 10878 10878 10878 10879 10882 10890 10893 10885 10876 10875 10874 10868 10859 10852 10850 10848 10844 10841 10838 10833 10830 10829 10827 10825 10822 10819 10816 10812 10808 10805 10801 10798 10795 10791 10787 10783 10779 10775 10771 10767 10764 10761 10758 10755 10752 10748
10870 10871 10871 10873 10875 10876 10878 10879 10881 10884 10886 10887 10888 10888 10888 10889 10889 10890 10891 10892 10892 10892 10893 10893 10892 10889 10887 10887 10887 10886 10884 10882 10881 10881 10881 10880 10879 10878 10878 10877 10876 10876 10877 10878 10882 10890 10892 10883 10873 10871 10872 10867 10858 10851 10848 10844 10839 10836 10832 10828 10826 10824 10822 10820 10816 10812 10809 10805 10801 10797 10793 10790 10786 10782 10778 10773 10769 10764 10760 10756 10752 10750 10747 10744 10741 10738
10866 10867 10869 10872 10873 10874 10876 10877 10880 10882 10884 10884 10885 10885 10886 10887 10887 10888 10889 10890 10890 10890 10890 10890 10888 10885 10884 10884 10884 10883 10881 10879 10879 10878 10877 10877 10876 10875 10875 10874 10874 10875 10875 10878 10883 10887 10887 10878 10868 10866 10868 10865 10857 10851 10846 10841 10835 10831 10827 10823 10822 10820 10817 10814 10810 10806 10802 10798 10794 10790 10785 10781 10777 10772 10768 10763 10758 10753 10748 10744 10741 10738 10736 10732 10729 10726
10862 10864 10866 10868 10870 10872 10875 10877 10878 10880 10880 10881 10882 10882 10883 10885 10886 10887 10887 10888 10887 10887 10886 10886 10885 10883 10881 10881 10881 10880 10879 10877 10876 10876 10874 10874 10874 10873 10873 10872 10873 10874 10875 10878 10882 10883 10881 10873 10863 10861 10865 10863 10856 10850 10845 10839 10832 10827 10824 10820 10818 10815 10811 10808 10804 10800 10796 10792 10787 10783 10778 10773 10768 10763 10758 10753 10748 10742 10737 10733 10730 10727 10724 10720 10717 10713
10857 10859 10861 10864 10867 10870 10873 10875 10876 10877 10877 10878 10879 10880 10881 10882 10883 10884 10885 10885 10884 10883 10883 10882 10882 10881 10879 10879 10878 10878 10877 10875 10874 10873 10872 10872 10872 10871 10870 10870 10872 10875 10876 10877 10879 10877 10875 10868 10859 10857 10861 10860 10853 10846 10842 10837 10830 10824 10821 10817 10813 10810 10806 10802 10798 10794 10790 10785 10780 10775 10769 10764 10759 10754 10748 10743 10738 10732 10727 10723 10719 10715 10711 10707 10704 10701
10853 10855 10859 10863 10866 10869 10871 10872 10873 10874 10875 10876 10877 10878 10878 10879 10880 10881 10881 10881 10880 10879 10879 10879 10880 10879 10877 10876 10876 10875 10874 10873 10871 10871 10870 10870 10870 10868 10868 10869 10874 10877 10876 10875 10874 10872 10869 10862 10855 10854 10856 10856 10851 10842 10837 10833 10827 10821 10817 10813 10809 10805 10801 10797 10792 10787 10781 10776 10771 10766 10761 10755 10750 10744 10739 10733 10727 10721 10716 10712 10708 10704 10699 10695 10692 10688
10851 10855 10860 10863 10865 10867 10869 10870 10871 10873 10874 10874 10874 10875 10876 10876 10877 10878 10877 10877 10876 10876 10877 10877 10877 10876 10875 10874 10873 10872 10871 10870 10869 10869 10868 10868 10867 10865 10865 10868 10872 10872 10870 10870 10869 10868 10866 10858 10849 10848 10850 10849 10846 10839 10833 10829 10825 10820 10815 10811 10806 10801 10796 10791 10784 10779 10773 10767 10762 10757 10751 10746 10740 10734 10728 10722 10717 10712 10707 10702 10697 10693 10688 10684 10681 10677
10850 10855 10861 10863 10864 10864 10865 10867 10869 10871 10871 10871 10871 10872 10874 10875 10875 10875 10875 10874 10873 10873 10874 10874 10873 10872 10872 10871 10870 10869 10868 10868 10867 10867 10866 10865 10863 10862 10862 10863 10865 10864 10863 10864 10863 10864 10864 10855 10845 10843 10843 10842 10839 10834 10830 10826 10822 10817 10812 10807 10802 10796 10790 10784 10777 10771 10765 10759 10754 10748 10742 10737 10731 10725 10718 10712 10707 10703 10698 10692 10687 10683 10678 10674 10671 10667
10850 10856 10860 10861 10861 10861 10862 10865 10867 10868 10868 10868 10868 10870 10871 10872 10872 10872 10871 10871 10870 10870 10870 10869 10868 10868 10868 10867 10866 10866 10865 10865 10864 10864 10863 10862 10860 10859 10859 10859 10860 10859 10859 10859 10858 10859 10858 10850 10842 10841 10839 10836 10833 10830 10825 10821 10816 10811 10806 10801 10795 10789 10783 10777 10770 10763 10757 10751 10746 10740 10734 10728 10722 10715 10709 10703 10698 10694 10688 10683 10678 10673 10669 10664 10661 10657
10850 10854 10857 10857 10857 10857 10859 10861 10863 10864 10865 10865 10866 10867 10868 10868 10868 10867 10867 10866 10866 10866 10865 10865 10864 10865 10865 10864 10863 10863 10862 10861 10861 10860 10859 10858 10857 10855 10855 10855 10855 10855 10854 10853 10851 10851 10850 10844 10840 10838 10834 10831 10828 10824 10819 10815 10810 10805 10800 10794 10789 10783 10776 10770 10763 10756 10750 10745 10740 10733 10727 10720 10713 10707 10700 10694 10689 10685 10680 10675 10670 10665 10660 10655 10651 10647
10848 10851 10852 10852 10852 10854 10855 10857 10859 10861 10862 10863 10863 10864 10865 10864 10863 10862 10862 10862 10862 10861 10860 10861 10862 10863 10863 10862 10861 10860 10859 10858 10857 10857 10856 10855 10853 10852 10851 10851 10851 10850 10849 10847 10845 10843 10842 10838 10836 10833 10829 10825 10822 10817 10813 10808 10804 10799 10793 10788 10782 10775 10769 10762 10756 10749 10744 10738 10732 10725 10718 10712 10705 10699 10692 10686 10681 10677 10672 10666 10661 10656 10651 10646 10642 10638
10844 10845 10846 10847 10849 10851 10853 10854 10856 10858 10860 10861 10861 10862 10861 10860 10859 10858 10858 10858 10857 10856 10857 10858 10859 10860 10859 10858 10858 10857 10856 10855 10854 10854 10853 10852 10850 10849 10848 10847 10846 10845 10844 10842 10839 10837 10835 10832 10829 10826 10823 10820 10815 10811 10807 10802 10797 10792 10786 10780 10774 10768 10762 10756 10749 10742 10736 10730 10724 10717 10710 10704 10698 10691 10685 10679 10673 10668 10663 10658 10653 10648 10643 10638 10633 10629
10839 10841 10842 10844 10846 10847 10849 10851 10853 10856 10857 10858 10858 10858 10857 10856 10855 10855 10854 10854 10853 10853 10855 10856 10856 10856 10856 10855 10854 10853 10852 10852 10851 10850 10850 10849 10847 10846 10844 10842 10841 10840 10838 10836 10833 10831 10828 10825 10822 10819 10817 10813 10809 10804 10799 10795 10790 10784 10779 10773 10767 10761 10755 10749 10742 10735 10728 10722 10716 10710 10703 10697 10691 10684 10677 10671 10665 10659 10654 10649 10644 10639 10634 10629 10625 10621
10835 10838 10839 10840 10841 10842 10845 10847 10850 10853 10854 10854 10855 10854 10853 10851 10851 10851 10851 10851 10851 10852 10852 10852 10853 10852 10852 10851 10850 10850 10849 10848 10847 10847 10846 10845 10844 10842 10840 10838 10836 10834 10832 10829 10827 10824 10822 10819 10816 10813 10810 10806 10802 10797 10792 10787 10782 10777 10771 10765 10760 10754 10748 10742 10735 10728 10721 10715 10709 10703 10697 10690 10683 10676 10670 10664 10658 10652 10647 10641 10636 10631 10626 10622 10618 10614
10832 10835 10836 10836 10837 10840 10843 10846 10849 10850 10851 10851 10851 10850 10848 10847 10847 10847 10848 10848 10849 10849 10849 10849 10849 10849 10849 10848 10847 10846 10845 10844 10844 10844 10843 10842 10840 10838 10836 10834 10831 10829 10827 10824 10822 10820 10817 10814 10811 10807 10803 10799 10795 10791 10785 10780 10775 10769 10764 10758 10753 10748 10742 10736 10729 10722 10715 10709 10702 10696 10689 10682 10676 10669 10663 10657 10651 10646 10640 10634 10629 10625 10620 10616 10612 10608
10829 10832 10833 10833 10835 10838 10841 10845 10847 10847 10847 10847 10846 10845 10845 10844 10844 10844 10845 10845 10845 10844 10844 10845 10846 10846 10845 10844 10843 10842 10841 10841 10841 10841 10839 10838 10836 10834 10832 10830 10827 10825 10823 10820 10818 10816 10813 10809 10806 10801 10797 10793 10789 10784 10779 10774 10768 10763 10758 10753 10747 10742 10736 10729 10723 10716 10709 10702 10696 10689 10682 10676 10670 10664 10658 10651 10645 10639 10634 10628 10624 10619 10615 10611 10607 10603
10827 10830 10832 10832 10833 10835 10838 10841 10843 10843 10843 10842 10841 10842 10842 10842 10841 10841 10841 10841 10841 10840 10841 10841 10841 10841 10841 10840 10839 10838 10838 10838 10838 10837 10835 10834 10832 10831 10829 10826 10823 10821 10819 10816 10813 10810 10807 10803 10799 10795 10791 10787 10782 10777 10773 10768 10763 10758 10752 10747 10742 10736 10730 10723 10717 10710 10703 10697 10690 10684 10678 10672 10665 10659 10652 10645 10639 10634 10628 10623 10618 10614 10610 10607 10603 10599
10825 10828 10830 10829 10829 10831 10834 10837 10838 10838 10837 10837 10838 10839 10840 10839 10838 10837 10837 10837 10837 10837 10837 10837 10837 10837 10837 10836 10836 10835 10835 10835 10834 10833 10832 10831 10830 10828 10825 10823 10820 10817 10815 10812 10808 10805 10802 10798 10794 10790 10785 10781 10777 10772 10767 10763 10758 10753 10747 10742 10736 10730 10724 10718 10712 10705 10699 10693 10687 10681 10674 10667 10660 10653 10647 10640 10635 10629 10624 10619 10614 10609 10605 10602 10598 10594
10821 10824 10825 10825 10826 10828 10830 10832 10833 10833 10833 10833 10834 10835 10836 10835 10835 10834 10833 10834 10833 10833 10834 10834 10834 10834 10834 10833 10833 10833 10833 10832 10831 10830 10829 10828 10827 10825 10823 10820 10817 10814 10811 10808 10804 10800 10797 10793 10789 10785 10780 10776 10772 10767 10763 10758 10753 10748 10742 10737 10731 10725 10719 10713 10708 10702 10696 10690 10684 10677 10669 10662 10655 10649 10643 10637 10631 10625 10620 10614 10610 10605 10601 10597 10593 10589
10816 10819 10821 10822 10823 10824 10825 10827 10828 10828 10828 10829 10830 10831 10831 10831 10831 10830 10830 10830 10830 10830 10831 10832 10832 10832 10831 10831 10831 10830 10830 10829 10828 10827 10826 10824 10823 10821 10819 10816 10814 10810 10807 10803 10800 10796 10792 10788 10784 10780 10776 10771 10767 10763 10758 10753 10748 10743 10737 10732 10726 10721 10715 10710 10704 10699 10692 10686 10678 10671 10664 10658 10652 10646 10640 10634 10628 10622 10616 10611 10606 10601 10597 10593 10589 10586
10812 10815 10817 10818 10819 10820 10821 10822 10822 10823 10825 10826 10827 10827 10827 10827 10827 10827 10827 10828 10828 10829 10830 10830 10830 10829 10829 10829 10829 10828 10828 10827 10826 10824 10823 10821 10818 10816 10813 10811 10808 10805 10801 10798 10795 10792 10788 10784 10779 10775 10771 10767 10762 10758 10753 10748 10743 10738 10733 10728 10722 10717 10712 10707 10701 10695 10687 10680 10672 10666 10661 10656 10650 10643 10637 10631 10624 10618 10613 10607 10602 10597 10593 10589 10586 10582
10807 10811 10813 10814 10815 10816 10817 10818 10818 10820 10822 10823 10823 10822 10823 10823 10824 10824 10824 10825 10827 10827 10828 10828 10827 10827 10827 10827 10827 10826 10825 10824 10823 10821 10819 10817 10814 10811 10809 10806 10803 10800 10796 10792 10789 10786 10783 10779 10775 10771 10766 10762 10758 10753 10748 10743 10739 10734 10729 10724 10719 10715 10709 10703 10697 10690 10682 10675 10670 10665 10659 10653 10647 10640 10633 10627 10621 10615 10610 10604 10599 10594 10590 10586 10583 10579
10803 10807 10809 10810 10811 10812 10813 10814 10815 10817 10819 10819 10819 10819 10820 10821 10821 10822 10822 10824 10824 10824 10825 10825 10825 10825 10825 10824 10824 10824 10823 10821 10819 10817 10816 10813 10811 10808 10805 10802 10799 10796 10792 10788 10784 10781 10777 10773 10770 10766 10762 10758 10753 10749 10744 10740 10735 10731 10726 10721 10716 10711 10705 10699 10692 10685 10679 10674 10669 10663 10656 10650 10643 10637 10631 10625 10619 10613 10608 10602 10597 10592 10588 10584 10580 10577
10800 10803 10805 10806 10808 10809 10810 10811 10813 10814 10815 10815 10816 10816 10817 10818 10819 10819 10820 10821 10821 10821 10822 10822 10822 10822 10822 10823 10822 10821 10819 10817 10815 10813 10812 10809 10807 10804 10801 10798 10795 10792 10788 10784 10780 10777 10773 10769 10766 10762 10758 10754 10750 10745 10741 10736 10732 10727 10722 10718 10713 10707 10701 10695 10688 10682 10677 10672 10667 10660 10653 10647 10641 10635 10629 10624 10618 10613 10607 10602 10596 10591 10587 10583 10579 10576
10797 10799 10801 10803 10804 10806 10807 10808 10810 10811 10811 10811 10812 10813 10814 10815 10816 10817 10817 10818 10818 10818 10818 10819 10819 10820 10821 10820 10819 10817 10815 10813 10811 10810 10808 10805 10803 10800 10797 10794 10791 10788 10784 10780 10776 10772 10769 10765 10762 10759 10755 10751 10747 10742 10737 10733 10728 10724 10719 10714 10709 10703 10697 10691 10685 10680 10675 10670 10664 10658 10652 10646 10640 10635 10630 10624 10618 10613 10607 10602 10596 10591 10586 10582 10578 10575
10795 10796 10798 10800 10801 10803 10804 10806 10807 10808 10807 10807 10809 10810 10812 10813 10814 10815 10815 10815 10815 10815 10816 10817 10818 10819 10818 10817 10816 10814 10812 10810 10808 10806 10804 10802 10799 10797 10794 10791 10788 10784 10780 10776 10772 10769 10765 10762 10758 10755 10752 10748 10743 10739 10734 10729 10725 10720 10715 10711 10705 10699 10693 10688 10683 10678 10673 10668 10663 10657 10651 10646 10641 10635 10630 10624 10619 10613 10607 10602 10596 10591 10586 10582 10578 10575
10792 10794 10795 10796 10798 10800 10801 10803 10804 10804 10804 10805 10808 10809 10810 10811 10812 10812 10813 10813 10813 10814 10815 10816 10816 10816 10816 10814 10813 10811 10809 10807 10805 10803 10801 10798 10796 10793 10790 10787 10784 10780 10776 10772 10769 10765 10762 10758 10755 10752 10748 10744 10739 10735 10730 10725 10721 10717 10712 10707 10702 10696 10691 10686 10681 10676 10672 10667 10662 10656 10651 10646 10641 10636 10630 10625 10619 10614 10608 10603 10597 10592 10587 10583 10579 10575
10790 10791 10792 10794 10795 10797 10799 10801 10802 10802 10803 10805 10807 10808 10808 10809 10809 10810 10810 10811 10812 10813 10814 10814 10814 10814 10813 10812 10810 10808 10806 10804 10802 10800 10797 10795 10792 10790 10786 10783 10779 10776 10772 10769 10765 10762 10759 10756 10752 10748 10744 10740 10735 10731 10727 10722 10718 10714 10709 10704 10699 10694 10689 10684 10679 10675 10670 10665 10661 10656 10651 10646 10641 10636 10631 10625 10620 10614 10609 10604 10598 10593 10588 10583 10579 10575
10788 10789 10790 10792 10793 10795 10797 10799 10800 10802 10803 10805 10806 10806 10806 10807 10807 10808 10809 10810 10811 10812 10813 10813 10813 10812 10811 10809 10808 10806 10804 10801 10799 10796 10794 10791 10789 10786 10782 10779 10775 10772 10769 10765 10762 10759 10756 10752 10748 10744 10740 10736 10732 10728 10724 10720 10715 10711 10706 10701 10696 10692 10687 10683 10678 10673 10669 10664 10659 10655 10650 10645 10641 10636 10631 10626 10621 10615 10610 10604 10599 10594 10589 10584 10580 10575
10786 10788 10789 10791 10792 10794 10796 10798 10799 10801 10802 10803 10804 10805 10805 10806 10806 10807 10808 10809 10809 10810 10811 10811 10810 10809 10808 10807 10805 10803 10800 10798 10795 10793 10790 10788 10785 10782 10778 10774 10771 10768 10766 10763 10759 10756 10752 10748 10744 10740 10736 10733 10729 10725 10722 10718 10713 10709 10704 10700 10695 10691 10687 10682 10677 10672 10668 10663 10658 10654 10650 10646 10641 10637 10632 10626 10621 10615 10610 10604 10599 10594 10590 10585 10580 10576
10785 10787 10788 10790 10792 10793 10795 10796 10797 10799 10800 10801 10803 10804 10804 10805 10806 10807 10807 10807 10808 10808 10809 10808 10808 10807 10806 10804 10802 10800 10797 10794 10791 10789 10786 10784 10781 10777 10774 10770 10767 10764 10762 10759 10756 10752 10748 10744 10740 10737 10733 10729 10726 10722 10719 10715 10711 10707 10702 10698 10694 10690 10686 10681 10676 10672 10667 10662 10658 10653 10650 10645 10641 10637 10632 10627 10621 10615 10610 10605 10600 10595 10590 10586 10581 10576
10784 10786 10787 10789 10791 10792 10794 10795 10796 10798 10799 10801 10802 10802 10803 10804 10805 10805 10806 10806 10806 10806 10806 10805 10804 10803 10802 10801 10799 10796 10793 10790 10787 10785 10782 10779 10776 10773 10769 10766 10763 10760 10758 10755 10752 10748 10744 10741 10737 10734 10730 10726 10723 10720 10716 10713 10709 10704 10700 10696 10692 10688 10683 10679 10675 10670 10666 10661 10656 10652 10648 10644 10640 10636 10632 10627 10622 10616 10611 10606 10601 10597 10592 10586 10581 10577